Weather History for KD55 - October, 2012

Change the Weather History Date:

Saturday, October 13, 2012

  Actual Average (KDVL) Record (KDVL)
Temperature  
Mean Temperature 42 °F -  
Max Temperature 55 °F 55 °F 87 °F (1958)
Min Temperature 28 °F 35 °F 16 °F (1979)
Degree Days  
Heating Degree Days 24    
Moisture  
Dew Point 29 °F    
Average Humidity 65    
Maximum Humidity 93    
Minimum Humidity 38    
Precipitation  
Precipitation 0.00 in - - ()
Sea Level Pressure  
Sea Level Pressure 29.71 in    
Wind  
Wind Speed 11 mph (North)    
Max Wind Speed 18 mph    
Max Gust Speed 23 mph    
Visibility 10 miles    
Events      
Averages and records for this station are not official NWS values.
T = Trace of Precipitation, MM = Missing Value Source: NWS Daily Summary

Daily Weather History Graph

Daily Weather History Graph

Search for Another Location

Airport or City:

Trip Planner

Search our weather history database for the weather conditions in past years. The results will help you decide how hot, cold, wet, or windy it might be!

Date:

Astronomy

Oct. 13, 2012 Rise Set
Actual Time 7:51 AM CDT 6:46 PM CDT
Civil Twilight 7:19 AM CDT 7:18 PM CDT
Nautical Twilight 6:43 AM CDT 7:54 PM CDT
Astronomical Twilight 6:06 AM CDT 8:31 PM CDT
Moon 5:35 AM CDT (10/13) 5:36 PM CDT (10/13)
Length of Visible Light 11h 58m
Length of Day
10h 55m
Waning Crescent, 5% of the Moon is Illuminated
Oct 13
Waning Crescent
Oct 15
New
Oct 21
First Quarter
Oct 29
Full
Nov 6
Last Quarter

Hourly Weather History & Observations

Time (CDT) Temp. Windchill Dew Point Humidity Pressure Visibility Wind Dir Wind Speed Gust Speed Precip Events Conditions
12:55 AM 35.6 °F 27.5 °F 23.0 °F 60% 29.68 in 10.0 mi South 11.5 mph - N/A   Clear
1:35 AM 35.6 °F 26.2 °F 23.0 °F 60% 29.65 in 10.0 mi South 15.0 mph - N/A   Clear
1:55 AM 37.4 °F 28.9 °F 23.0 °F 56% 29.65 in 10.0 mi South 13.8 mph - N/A   Clear
2:15 AM 35.6 °F 27.1 °F 24.8 °F 65% 29.65 in 10.0 mi South 12.7 mph - N/A   Clear
2:35 AM 35.6 °F 26.6 °F 24.8 °F 65% 29.64 in 10.0 mi South 13.8 mph - N/A   Clear
2:55 AM 35.6 °F 27.1 °F 24.8 °F 65% 29.64 in 10.0 mi South 12.7 mph 18.4 mph N/A   Clear
3:15 AM 35.6 °F 27.5 °F 24.8 °F 65% 29.63 in 10.0 mi South 11.5 mph - N/A   Clear
3:35 AM 35.6 °F 27.5 °F 26.6 °F 70% 29.61 in 10.0 mi South 11.5 mph - N/A   Clear
3:55 AM 35.6 °F 28.0 °F 26.6 °F 70% 29.60 in 10.0 mi South 10.4 mph - N/A   Clear
4:15 AM 35.6 °F 28.6 °F 26.6 °F 70% 29.61 in 10.0 mi SSW 9.2 mph - N/A   Clear
4:35 AM 33.8 °F 25.8 °F 26.6 °F 75% 29.60 in 10.0 mi SSW 10.4 mph - N/A   Clear
4:55 AM 32.0 °F 23.0 °F 26.6 °F 80% 29.61 in 10.0 mi SSW 11.5 mph - N/A   Clear
5:15 AM 32.0 °F 24.2 °F 26.6 °F 80% 29.61 in 10.0 mi SSW 9.2 mph - N/A   Clear
5:35 AM 32.0 °F 24.2 °F 26.6 °F 80% 29.61 in 10.0 mi SSW 9.2 mph - N/A   Clear
5:55 AM 32.0 °F 23.0 °F 26.6 °F 80% 29.61 in 10.0 mi SSW 11.5 mph - N/A   Clear
6:15 AM 32.0 °F 25.6 °F 28.4 °F 87% 29.61 in 10.0 mi SSW 6.9 mph - N/A   Clear
6:35 AM 32.0 °F 27.5 °F 28.4 °F 87% 29.60 in 10.0 mi SSW 4.6 mph - N/A   Clear
6:55 AM 32.0 °F 25.6 °F 28.4 °F 87% 29.61 in 10.0 mi SW 6.9 mph - N/A   Clear
7:15 AM 30.2 °F 24.3 °F 28.4 °F 93% 29.61 in 10.0 mi WSW 5.8 mph - N/A   Clear
7:35 AM 28.4 °F 24.6 °F 26.6 °F 93% 29.62 in 10.0 mi WSW 3.5 mph - N/A   Clear
7:55 AM 28.4 °F 24.6 °F 26.6 °F 93% 29.63 in 10.0 mi WSW 3.5 mph - N/A   Clear
8:15 AM 30.2 °F 25.4 °F 28.4 °F 93% 29.63 in 10.0 mi WNW 4.6 mph - N/A   Clear
8:55 AM 32.0 °F - 30.2 °F 93% 29.64 in 10.0 mi Calm Calm - N/A   Clear
9:35 AM 37.4 °F 31.4 °F 32.0 °F 81% 29.66 in 10.0 mi NNW 8.1 mph - N/A   Clear
9:55 AM 41.0 °F 34.3 °F 32.0 °F 70% 29.66 in 10.0 mi North 11.5 mph - N/A   Clear
10:15 AM 41.0 °F 35.2 °F 30.2 °F 65% 29.67 in 10.0 mi NNE 9.2 mph - N/A   Clear
10:35 AM 42.8 °F 36.6 °F 28.4 °F 57% 29.67 in 10.0 mi NNE 11.5 mph - N/A   Clear
10:55 AM 44.6 °F 39.7 °F 28.4 °F 53% 29.68 in 10.0 mi NNE 9.2 mph - N/A   Clear
11:15 AM 44.6 °F 39.7 °F 30.2 °F 57% 29.68 in 10.0 mi NNE 9.2 mph - N/A   Clear
11:35 AM 46.4 °F 42.4 °F 28.4 °F 50% 29.69 in 10.0 mi NNE 8.1 mph - N/A   Clear
11:55 AM 48.2 °F - 28.4 °F 46% 29.69 in 10.0 mi NNE 8.1 mph - N/A   Clear
12:35 PM 50.0 °F - 28.4 °F 43% 29.70 in 10.0 mi North 8.1 mph - N/A   Clear
12:55 PM 50.0 °F - 28.4 °F 43% 29.70 in 10.0 mi North 10.4 mph - N/A   Clear
1:15 PM 51.8 °F - 28.4 °F 41% 29.70 in 10.0 mi North 15.0 mph - N/A   Clear
1:35 PM 53.6 °F - 28.4 °F 38% 29.70 in 10.0 mi North 13.8 mph - N/A   Clear
1:55 PM 53.6 °F - 28.4 °F 38% 29.71 in 10.0 mi North 12.7 mph 18.4 mph N/A   Clear
2:15 PM 53.6 °F - 30.2 °F 41% 29.71 in 10.0 mi North 13.8 mph - N/A   Clear
2:35 PM 53.6 °F - 30.2 °F 41% 29.71 in 10.0 mi North 13.8 mph - N/A   Clear
3:15 PM 55.4 °F - 32.0 °F 41% 29.72 in 7.0 mi North 12.7 mph 21.9 mph N/A   Clear
3:35 PM 55.4 °F - 32.0 °F 41% 29.73 in 10.0 mi North 15.0 mph 23.0 mph N/A   Clear
3:55 PM 53.6 °F - 32.0 °F 44% 29.73 in 10.0 mi NNE 18.4 mph - N/A   Clear
4:15 PM 53.6 °F - 32.0 °F 44% 29.74 in 10.0 mi NNE 15.0 mph - N/A   Clear
4:35 PM 50.0 °F - 32.0 °F 50% 29.75 in 10.0 mi North 12.7 mph - N/A   Clear
4:55 PM 50.0 °F - 32.0 °F 50% 29.75 in 10.0 mi NNE 15.0 mph - N/A   Clear
5:15 PM 51.8 °F - 32.0 °F 47% 29.76 in 10.0 mi North 13.8 mph - N/A   Clear
5:35 PM 50.0 °F - 32.0 °F 50% 29.78 in 10.0 mi North 12.7 mph 18.4 mph N/A   Clear
5:55 PM 50.0 °F - 32.0 °F 50% 29.78 in 10.0 mi NNE 10.4 mph - N/A   Clear
6:15 PM 48.2 °F - 32.0 °F 54% 29.80 in 10.0 mi NNE 11.5 mph - N/A   Clear
6:35 PM 46.4 °F 42.9 °F 32.0 °F 57% 29.81 in 10.0 mi NNE 6.9 mph - N/A   Clear
7:35 PM 39.2 °F 33.6 °F 32.0 °F 75% 29.83 in 10.0 mi North 8.1 mph - N/A   Clear
7:55 PM 39.2 °F 33.0 °F 30.2 °F 70% 29.83 in 10.0 mi North 9.2 mph - N/A   Clear
8:15 PM 39.2 °F 35.0 °F 32.0 °F 75% 29.84 in 10.0 mi North 5.8 mph - N/A   Clear
9:15 PM 39.2 °F 33.6 °F 32.0 °F 75% 29.86 in 10.0 mi North 8.1 mph - N/A   Clear
9:35 PM 37.4 °F 30.8 °F 32.0 °F 81% 29.87 in 10.0 mi North 9.2 mph - N/A   Clear
9:55 PM 37.4 °F 31.4 °F 32.0 °F 81% 29.88 in 10.0 mi North 8.1 mph - N/A   Clear
10:15 PM 37.4 °F 30.3 °F 32.0 °F 81% 29.89 in 10.0 mi North 10.4 mph - N/A   Clear
11:15 PM 37.4 °F 29.8 °F 33.8 °F 87% 29.89 in 10.0 mi North 11.5 mph - N/A   Clear
11:35 PM 37.4 °F 30.3 °F 33.8 °F 87% 29.89 in 10.0 mi North 10.4 mph - N/A   Clear
11:55 PM 35.6 °F 28.6 °F 33.8 °F 93% 29.90 in 10.0 mi North 9.2 mph - N/A   Clear